User: anonymous   Login
Location: Beaurevoir
(49.9971°N, 3.3085°E)
Time: 22:36:43
(UTC+00:00)
Language:

H-2A R/B - Orbit

View from above orbital plane
View from above orbital plane
View from above satellite
View from above satellite

Ground track
Ground track

The orbit data is extracted from the following two-line orbital elements,

1 38341U 12025E   24204.49506869  .00005683  00000-0  59710-3 0  9995
2 38341  98.4213 118.2593 0051799  93.5481 267.1660 14.88901685659523
Epoch (UTC): 22 July 2024 11:52:53
Eccentricity: 0.0051799
inclination: 98.4213°
perigee height: 565 km
apogee height: 637 km
right ascension of ascending node: 118.2593°
argument of perigee: 93.5481°
revolutions per day: 14.88901685
mean anomaly at epoch: 267.1660°
orbit number at epoch: 65952

The dashed part of the orbit path shows where the satellite is in the earth's shadow,  

DLR